TimeCST,TemperatureF,Dew PointF,Humidity,Sea Level PressureIn,VisibilityMPH,Wind Direction,Wind SpeedMPH,Gust SpeedMPH,PrecipitationIn,Events,Conditions,WindDirDegrees,DateUTC
12:15 AM,28.4,26.6,93,30.29,10.0,Calm,Calm,-,N/A,,Clear,0,2012-12-14 06:15:00
12:35 AM,28.4,26.6,93,30.29,10.0,Calm,Calm,-,N/A,,Clear,0,2012-12-14 06:35:00
12:55 AM,26.6,24.8,93,30.27,10.0,Calm,Calm,-,N/A,,Clear,0,2012-12-14 06:55:00
1:15 AM,26.6,24.8,93,30.27,10.0,Calm,Calm,-,N/A,,Clear,0,2012-12-14 07:15:00
1:35 AM,28.4,24.8,86,30.28,10.0,Calm,Calm,-,N/A,,Clear,0,2012-12-14 07:35:00
1:55 AM,26.6,24.8,93,30.28,10.0,Calm,Calm,-,N/A,,Clear,0,2012-12-14 07:55:00
2:15 AM,26.6,24.8,93,30.28,10.0,Calm,Calm,-,N/A,,Clear,0,2012-12-14 08:15:00
2:55 AM,26.6,24.8,93,30.26,10.0,Calm,Calm,-,N/A,,Clear,0,2012-12-14 08:55:00
3:15 AM,26.6,24.8,93,30.26,10.0,Calm,Calm,-,N/A,,Clear,0,2012-12-14 09:15:00
3:55 AM,26.6,23.0,86,30.26,10.0,Calm,Calm,-,N/A,,Clear,0,2012-12-14 09:55:00
4:15 AM,24.8,23.0,93,30.25,10.0,Calm,Calm,-,N/A,,Clear,0,2012-12-14 10:15:00
4:35 AM,26.6,23.0,86,30.26,10.0,Calm,Calm,-,N/A,,Clear,0,2012-12-14 10:35:00
4:55 AM,24.8,23.0,93,30.25,10.0,Calm,Calm,-,N/A,,Clear,0,2012-12-14 10:55:00
5:15 AM,24.8,23.0,93,30.24,10.0,Calm,Calm,-,N/A,,Clear,0,2012-12-14 11:15:00
5:35 AM,24.8,23.0,93,30.24,10.0,Calm,Calm,-,N/A,,Clear,0,2012-12-14 11:35:00
5:55 AM,24.8,23.0,93,30.25,10.0,Calm,Calm,-,N/A,,Clear,0,2012-12-14 11:55:00
6:15 AM,24.8,23.0,93,30.25,10.0,Calm,Calm,-,N/A,,Clear,0,2012-12-14 12:15:00
6:35 AM,24.8,23.0,93,30.27,10.0,Calm,Calm,-,N/A,,Clear,0,2012-12-14 12:35:00
6:55 AM,24.8,23.0,93,30.27,10.0,Calm,Calm,-,N/A,,Clear,0,2012-12-14 12:55:00
7:15 AM,24.8,23.0,93,30.27,10.0,Calm,Calm,-,N/A,,Clear,0,2012-12-14 13:15:00
7:35 AM,26.6,23.0,86,30.28,10.0,Calm,Calm,-,N/A,,Clear,0,2012-12-14 13:35:00
7:55 AM,26.6,24.8,93,30.27,10.0,Calm,Calm,-,N/A,,Clear,0,2012-12-14 13:55:00
8:15 AM,28.4,24.8,86,30.28,10.0,Calm,Calm,-,N/A,,Clear,0,2012-12-14 14:15:00
8:55 AM,32.0,28.4,87,30.28,10.0,Calm,Calm,-,N/A,,Clear,0,2012-12-14 14:55:00
9:15 AM,35.6,32.0,87,30.28,7.0,Calm,Calm,-,N/A,,Clear,0,2012-12-14 15:15:00
9:35 AM,39.2,32.0,75,30.28,9.0,Calm,Calm,-,N/A,,Clear,0,2012-12-14 15:35:00
9:55 AM,41.0,32.0,70,30.27,5.0,Calm,Calm,-,N/A,,Clear,0,2012-12-14 15:55:00
10:15 AM,42.8,32.0,66,30.27,9.0,SSE,3.5,-,N/A,,Clear,160,2012-12-14 16:15:00
10:55 AM,50.0,32.0,50,30.26,10.0,Calm,Calm,-,N/A,,Clear,0,2012-12-14 16:55:00
11:15 AM,51.8,32.0,47,30.25,10.0,South,4.6,-,N/A,,Clear,180,2012-12-14 17:15:00
11:35 AM,55.4,32.0,41,30.24,10.0,Calm,Calm,-,N/A,,Clear,0,2012-12-14 17:35:00
11:55 AM,57.2,32.0,38,30.23,10.0,Calm,Calm,-,N/A,,Clear,0,2012-12-14 17:55:00
12:15 PM,59.0,32.0,36,30.21,10.0,Calm,Calm,-,N/A,,Partly Cloudy,0,2012-12-14 18:15:00
12:35 PM,60.8,32.0,34,30.20,10.0,Calm,Calm,-,N/A,,Partly Cloudy,0,2012-12-14 18:35:00
12:55 PM,60.8,32.0,34,30.19,10.0,South,3.5,-,N/A,,Clear,170,2012-12-14 18:55:00
1:15 PM,59.0,32.0,36,30.17,10.0,NNE,3.5,-,N/A,,Scattered Clouds,20,2012-12-14 19:15:00
1:35 PM,60.8,32.0,34,30.15,10.0,NE,3.5,-,N/A,,Mostly Cloudy,50,2012-12-14 19:35:00
2:35 PM,59.0,33.8,39,30.10,10.0,Calm,Calm,-,N/A,,Mostly Cloudy,0,2012-12-14 20:35:00
2:55 PM,59.0,32.0,36,30.10,10.0,SE,6.9,-,N/A,,Partly Cloudy,130,2012-12-14 20:55:00
3:15 PM,59.0,32.0,36,30.09,10.0,SE,5.8,-,N/A,,Clear,130,2012-12-14 21:15:00
3:35 PM,59.0,32.0,36,30.08,10.0,SE,6.9,-,N/A,,Clear,130,2012-12-14 21:35:00
3:55 PM,59.0,32.0,36,30.07,10.0,SE,5.8,-,N/A,,Clear,130,2012-12-14 21:55:00
4:15 PM,57.2,33.8,41,30.07,10.0,SE,5.8,-,N/A,,Partly Cloudy,140,2012-12-14 22:15:00
4:35 PM,57.2,33.8,41,30.07,10.0,SSE,4.6,-,N/A,,Partly Cloudy,150,2012-12-14 22:35:00
4:55 PM,57.2,33.8,41,30.06,10.0,SE,4.6,-,N/A,,Mostly Cloudy,130,2012-12-14 22:55:00
5:15 PM,55.4,35.6,47,30.07,10.0,Calm,Calm,-,N/A,,Overcast,0,2012-12-14 23:15:00
5:35 PM,55.4,33.8,44,30.09,10.0,South,4.6,-,N/A,,Overcast,190,2012-12-14 23:35:00
5:55 PM,53.6,37.4,54,30.09,5.0,South,3.5,-,N/A,Rain,Light Rain,190,2012-12-14 23:55:00
6:35 PM,50.0,44.6,82,30.08,10.0,Calm,Calm,-,0.01,,Overcast,0,2012-12-15 00:35:00
6:55 PM,50.0,41.0,71,30.07,10.0,Calm,Calm,-,0.01,Rain,Light Rain,0,2012-12-15 00:55:00
7:35 PM,50.0,44.6,82,30.07,10.0,Calm,Calm,-,N/A,Rain,Light Rain,0,2012-12-15 01:35:00
7:55 PM,48.2,44.6,87,30.07,10.0,NE,3.5,-,N/A,Rain,Light Rain,50,2012-12-15 01:55:00
8:15 PM,50.0,44.6,82,30.06,10.0,East,3.5,-,N/A,,Overcast,90,2012-12-15 02:15:00
8:55 PM,50.0,42.8,76,30.03,10.0,ESE,3.5,-,N/A,,Overcast,110,2012-12-15 02:55:00
9:15 PM,51.8,42.8,71,30.04,10.0,SE,5.8,-,N/A,,Overcast,130,2012-12-15 03:15:00
9:35 PM,51.8,42.8,71,30.02,10.0,ESE,4.6,-,N/A,,Overcast,120,2012-12-15 03:35:00
9:55 PM,51.8,42.8,71,30.03,10.0,SE,4.6,-,N/A,,Overcast,130,2012-12-15 03:55:00
10:15 PM,51.8,42.8,71,30.02,10.0,ESE,4.6,-,N/A,,Overcast,120,2012-12-15 04:15:00
10:35 PM,53.6,42.8,67,30.02,10.0,SE,5.8,-,N/A,,Overcast,130,2012-12-15 04:35:00
10:55 PM,53.6,42.8,67,30.01,10.0,SE,6.9,-,N/A,,Overcast,130,2012-12-15 04:55:00
11:15 PM,53.6,42.8,67,30.01,10.0,SSE,9.2,-,N/A,,Overcast,150,2012-12-15 05:15:00
11:35 PM,53.6,42.8,67,29.99,10.0,SE,11.5,17.3,N/A,,Overcast,140,2012-12-15 05:35:00
11:55 PM,53.6,42.8,67,29.98,10.0,SE,11.5,-,N/A,,Overcast,140,2012-12-15 05:55:00